Погода в Нефтегорске

Россия / Краснодарский край     44°21′13″N   39°42′15″E
темп.,
°C
ветер,
м/с
пор.,
м/с
влажн.,
%
обл.,
%
осадки,
мм/ч
давл.,
гПа
погр.,
м
23 июня, ср
ср2300:00+20ююз118981 0.0 101318
03:00+18ю119765 0.0 101311
06:00+19зсз119394 0.0 101499
09:00+21ссз118694 0.1 1014461
12:00+24ссв127192 0.1 1014798
15:00+26ссв126138 0.1 1013840
18:00+26св23663 0.0 1012680
21:00+20юз118918 0.0 101311
24 июня, чт
чт2400:00+19ю229479 0.2 101445
03:00+18ююз2296100 0.2 101432
06:00+18ююз12893 0.0 101569
09:00+24ссз216898 0.0 1014948
12:00+23ссв127989 0.3 1015679
15:00+25св237296 0.8 1014714
18:00+24в128224 0.3 1014274
21:00+20ю22944 0.3 101418
25 июня, пт
пт2500:00+18ююз229518 0.0 101425
03:00+17ююз229776 0.1 101336
06:00+19юз1196100 1.6 101340
09:00+20сз119492 4.6 1014220
12:00+20сз019645 2.3 1014201
15:00+26с226388 2.5 10121304
18:00+22з119290 2.6 101227
21:00+20юв009682 3.0 101311
26 июня, сб
сб2600:00+19ююз119734 0.0 101213
03:00+19юз1198100 0.1 101231
06:00+18ююз1198100 1.7 101255
09:00+21зюз0190100 5.2 1012295
12:00+27ссв2258100 0.9 10111230
15:00+24сз1385100 4.7 1011287
18:00+22с129350 2.8 1012103
21:00+19юв019664 3.3 101211
27 июня, вс
вс2700:00+18ююз229784 0.3 101352
03:00+17ююз229734 0.9 101339
06:00+17ю239868 1.8 101492
09:00+23сз116732 2.4 1014762
12:00+27ссз235238 0.1 10131600
15:00+25св017549 2.1 1013461
18:00+23св13879 2.0 1014193
21:00+19ююв22941 2.1 101521